Weather History for Manistique, MI

Change the Weather History Date:

Saturday, January 12, 2013

  Actual Average Record
Temperature  
Mean Temperature 35 °F -  
Max Temperature 42 °F 26 °F 42 °F (1980)
Min Temperature 28 °F 5 °F -14 °F (1964)
Degree Days  
Heating Degree Days 30    
Moisture  
Dew Point 34 °F    
Average Humidity 84    
Maximum Humidity 93    
Minimum Humidity 66    
Precipitation  
Precipitation 0.00 in - - ()
Sea Level Pressure  
Sea Level Pressure 29.67 in    
Wind  
Wind Speed 10 mph (SSW)    
Max Wind Speed 18 mph    
Max Gust Speed 28 mph    
Visibility 7 miles    
Events Fog    
Averages and records for this station are not official NWS values.
T = Trace of Precipitation, MM = Missing Value Source: NWS Daily Summary

Daily Weather History Graph

Daily Weather History Graph

Search for Another Location

Airport:

Trip Planner

Search our weather history database for the weather conditions in past years. The results will help you decide how hot, cold, wet, or windy it might be!

Date:

Astronomy

Jan. 12, 2013 Rise Set
Actual Time 8:23 AM EST 5:22 PM EST
Civil Twilight 7:50 AM EST 5:56 PM EST
Nautical Twilight 7:13 AM EST 6:33 PM EST
Astronomical Twilight 6:37 AM EST 7:09 PM EST
Moon 8:37 AM EST (1/12) 6:57 PM EST (1/12)
Length of Visible Light 10h 06m
Length of Day
8h 58m
New Moon, 1% of the Moon is Illuminated
Jan 12
New Moon
Jan 18
First Quarter
Jan 26
Full
Feb 3
Last Quarter
Feb 10
New

Hourly Weather History & Observations

Time (EST) Temp. Windchill Dew Point Humidity Pressure Visibility Wind Dir Wind Speed Gust Speed Precip Events Conditions
12:14 AM 41.0 °F 34.3 °F 39.2 °F 93% 29.60 in 0.5 mi SSE 11.5 mph 16.1 mph N/A Fog Fog
12:35 AM 41.0 °F 34.3 °F 39.2 °F 93% 29.59 in 1.0 mi SSE 11.5 mph - N/A   Overcast
12:55 AM 41.0 °F 33.9 °F 39.2 °F 93% 29.58 in 0.8 mi SSE 12.7 mph - N/A   Overcast
1:14 AM 41.0 °F 34.7 °F 39.2 °F 93% 29.59 in 2.0 mi SSE 10.4 mph 16.1 mph N/A   Overcast
1:35 AM 42.8 °F 36.6 °F 39.2 °F 87% 29.58 in 3.0 mi South 11.5 mph 16.1 mph N/A   Overcast
1:54 AM 42.8 °F 36.6 °F 39.2 °F 87% 29.57 in 3.0 mi South 11.5 mph 17.3 mph N/A   Overcast
2:15 AM 42.8 °F 37.0 °F 39.2 °F 87% 29.57 in 3.0 mi South 10.4 mph 18.4 mph N/A   Overcast
2:35 AM 42.8 °F 38.0 °F 39.2 °F 87% 29.57 in 4.0 mi South 8.1 mph - N/A   Overcast
2:54 AM 42.8 °F 37.5 °F 41.0 °F 93% 29.57 in 4.0 mi South 9.2 mph - N/A   Overcast
3:15 AM 42.8 °F 38.6 °F 39.2 °F 87% 29.57 in 4.0 mi SSW 6.9 mph - N/A   Overcast
3:35 AM 41.0 °F 37.1 °F 39.2 °F 93% 29.57 in 3.0 mi SSW 5.8 mph - N/A   Overcast
3:55 AM 41.0 °F 37.1 °F 39.2 °F 93% 29.56 in 2.5 mi SW 5.8 mph - N/A   Overcast
4:15 AM 41.0 °F 37.1 °F 39.2 °F 93% 29.56 in 2.5 mi SW 5.8 mph - N/A   Overcast
4:34 AM 41.0 °F 38.0 °F 39.2 °F 93% 29.55 in 2.5 mi SW 4.6 mph - N/A   Overcast
4:55 AM 41.0 °F 37.1 °F 39.2 °F 93% 29.54 in 2.5 mi SSW 5.8 mph - N/A   Overcast
5:14 AM 41.0 °F 35.8 °F 39.2 °F 93% 29.53 in 2.5 mi SSW 8.1 mph - N/A   Overcast
5:35 AM 41.0 °F 36.4 °F 39.2 °F 93% 29.52 in 2.5 mi SSW 6.9 mph - N/A   Overcast
5:55 AM 41.0 °F 37.1 °F 39.2 °F 93% 29.53 in 3.0 mi SW 5.8 mph - N/A   Overcast
6:14 AM 41.0 °F 35.8 °F 39.2 °F 93% 29.52 in 4.0 mi SW 8.1 mph - N/A   Overcast
6:35 AM 41.0 °F 35.2 °F 39.2 °F 93% 29.52 in 4.0 mi SSW 9.2 mph 17.3 mph N/A   Overcast
6:55 AM 41.0 °F 35.8 °F 39.2 °F 93% 29.52 in 5.0 mi SSW 8.1 mph - N/A   Overcast
7:15 AM 41.0 °F 35.2 °F 39.2 °F 93% 29.52 in 4.0 mi SSW 9.2 mph - N/A   Overcast
7:35 AM 41.0 °F 35.2 °F 39.2 °F 93% 29.52 in 5.0 mi SSW 9.2 mph - N/A   Overcast
7:54 AM 41.0 °F 34.3 °F 39.2 °F 93% 29.53 in 5.0 mi SSW 11.5 mph 18.4 mph N/A   Mostly Cloudy
8:15 AM 41.0 °F 33.1 °F 39.2 °F 93% 29.53 in 5.0 mi SSW 15.0 mph 19.6 mph N/A   Mostly Cloudy
8:35 AM 41.0 °F 33.1 °F 39.2 °F 93% 29.53 in 5.0 mi SSW 15.0 mph 19.6 mph N/A   Scattered Clouds
8:55 AM 41.0 °F 32.8 °F 39.2 °F 93% 29.54 in 5.0 mi SSW 16.1 mph 25.3 mph N/A   Clear
9:15 AM 41.0 °F 33.1 °F 39.2 °F 93% 29.54 in 10.0 mi SSW 15.0 mph 24.2 mph N/A   Clear
9:34 AM 41.0 °F 32.5 °F 39.2 °F 93% 29.54 in 10.0 mi SSW 17.3 mph 23.0 mph N/A   Clear
9:55 AM 41.0 °F 33.5 °F 39.2 °F 93% 29.55 in 10.0 mi SSW 13.8 mph 21.9 mph N/A   Clear
10:14 AM 41.0 °F 33.1 °F 39.2 °F 93% 29.56 in 10.0 mi SSW 15.0 mph 25.3 mph N/A   Clear
10:35 AM 41.0 °F 32.2 °F 39.2 °F 93% 29.57 in 10.0 mi SSW 18.4 mph 25.3 mph N/A   Clear
10:55 AM 42.8 °F 35.4 °F 39.2 °F 87% 29.58 in 10.0 mi SSW 15.0 mph 26.5 mph N/A   Clear
11:14 AM 42.8 °F 34.8 °F 37.4 °F 81% 29.58 in 10.0 mi SSW 17.3 mph 24.2 mph N/A   Clear
11:35 AM 42.8 °F 34.5 °F 37.4 °F 81% 29.59 in 10.0 mi SSW 18.4 mph 27.6 mph N/A   Scattered Clouds
11:54 AM 42.8 °F 34.5 °F 35.6 °F 76% 29.60 in 10.0 mi SW 18.4 mph 25.3 mph N/A   Overcast
12:15 PM 42.8 °F 35.8 °F 33.8 °F 70% 29.61 in 10.0 mi SW 13.8 mph 20.7 mph N/A   Overcast
12:35 PM 41.0 °F 33.9 °F 33.8 °F 76% 29.62 in 10.0 mi SW 12.7 mph 27.6 mph N/A   Overcast
12:54 PM 42.8 °F 35.8 °F 33.8 °F 70% 29.63 in 10.0 mi SW 13.8 mph 23.0 mph N/A   Overcast
1:15 PM 42.8 °F 35.4 °F 32.0 °F 66% 29.65 in 10.0 mi SW 15.0 mph 24.2 mph N/A   Mostly Cloudy
1:35 PM 39.2 °F 33.0 °F 30.2 °F 70% 29.66 in 10.0 mi SW 9.2 mph 21.9 mph N/A   Mostly Cloudy
1:55 PM 39.2 °F 33.0 °F 30.2 °F 70% 29.67 in 10.0 mi SW 9.2 mph 20.7 mph N/A   Scattered Clouds
2:15 PM 39.2 °F 31.2 °F 30.2 °F 70% 29.69 in 10.0 mi SSW 13.8 mph 20.7 mph N/A   Clear
2:34 PM 39.2 °F 30.8 °F 32.0 °F 75% 29.71 in 10.0 mi SSW 15.0 mph 23.0 mph N/A   Scattered Clouds
2:55 PM 37.4 °F 27.8 °F 30.2 °F 75% 29.73 in 10.0 mi SSW 17.3 mph 25.3 mph N/A   Scattered Clouds
3:15 PM 37.4 °F 28.5 °F 30.2 °F 75% 29.74 in 10.0 mi SSW 15.0 mph 25.3 mph N/A   Scattered Clouds
3:35 PM 37.4 °F 30.3 °F 30.2 °F 75% 29.75 in 10.0 mi SW 10.4 mph 18.4 mph N/A   Clear
3:55 PM 37.4 °F 29.8 °F 28.4 °F 70% 29.76 in 10.0 mi SSW 11.5 mph 18.4 mph N/A   Clear
4:14 PM 35.6 °F 28.0 °F 28.4 °F 75% 29.78 in 10.0 mi SW 10.4 mph - N/A   Clear
4:35 PM 35.6 °F 28.6 °F 28.4 °F 75% 29.79 in 10.0 mi SW 9.2 mph 17.3 mph N/A   Clear
4:55 PM 35.6 °F 28.0 °F 28.4 °F 75% 29.81 in 10.0 mi SW 10.4 mph - N/A   Clear
5:15 PM 35.6 °F 28.6 °F 28.4 °F 75% 29.81 in 10.0 mi SW 9.2 mph - N/A   Mostly Cloudy
5:35 PM 33.8 °F 27.0 °F 28.4 °F 81% 29.81 in 10.0 mi SW 8.1 mph - N/A   Mostly Cloudy
5:55 PM 33.8 °F 25.8 °F 28.4 °F 81% 29.83 in 10.0 mi SSW 10.4 mph 16.1 mph N/A   Clear
6:15 PM 33.8 °F 27.0 °F 28.4 °F 81% 29.83 in 10.0 mi SSW 8.1 mph - N/A   Clear
6:34 PM 33.8 °F 25.8 °F 28.4 °F 81% 29.84 in 10.0 mi SSW 10.4 mph 17.3 mph N/A   Clear
6:55 PM 33.8 °F 25.8 °F 28.4 °F 81% 29.85 in 10.0 mi SW 10.4 mph 16.1 mph N/A   Clear
7:14 PM 33.8 °F 27.7 °F 26.6 °F 75% 29.86 in 10.0 mi SW 6.9 mph - N/A   Clear
7:35 PM 33.8 °F 27.7 °F 26.6 °F 75% 29.87 in 10.0 mi SW 6.9 mph - N/A   Clear
8:14 PM 33.8 °F 27.0 °F 26.6 °F 75% 29.87 in 10.0 mi WSW 8.1 mph - N/A   Mostly Cloudy
8:55 PM 32.0 °F 27.5 °F 24.8 °F 75% 29.88 in 10.0 mi WSW 4.6 mph - N/A   Scattered Clouds
9:15 PM 30.2 °F 25.4 °F 23.0 °F 75% 29.86 in 10.0 mi WSW 4.6 mph - N/A   Clear
9:35 PM 30.2 °F 24.3 °F 23.0 °F 75% 29.87 in 10.0 mi WSW 5.8 mph - N/A   Clear
9:54 PM 30.2 °F 25.4 °F 24.8 °F 80% 29.88 in 10.0 mi West 4.6 mph - N/A   Clear
10:15 PM 30.2 °F - 24.8 °F 80% 29.88 in 10.0 mi Calm Calm - N/A   Clear
10:35 PM 28.4 °F 24.6 °F 24.8 °F 86% 29.88 in 10.0 mi WSW 3.5 mph - N/A   Clear
10:54 PM 30.2 °F 26.7 °F 24.8 °F 80% 29.91 in 10.0 mi SW 3.5 mph - N/A   Clear
11:34 PM 30.2 °F - 24.8 °F 80% 29.89 in 10.0 mi Calm Calm - N/A   Clear
11:55 PM 30.2 °F - 24.8 °F 80% 29.91 in 10.0 mi Calm Calm - N/A   Clear